Location: *
(55.5817°S, 142.4781°W)
Time: 08:26:11
(UTC+00:00)

Blok-ML - Pass Details

Date: 29 April 2025
Orbit: 714 x 40407 km, 63.2° (Epoch: 13 May)

Event Time Altitude Azimuth Distance (km) Brightness Sun altitude
Exits shadow 15:21:00 18° 266° (W) 1,805 5.3 -12.9°
Maximum altitude 15:23:44 44° 198° (SSW) 1,008 4.4 -12.6°
Drops below altitude 10° 15:28:28 10° 123° (ESE) 2,823 7.7 -11.9°
Sets 15:32:05 0° 116° (ESE) 4,665 9.0 -11.4°
